CAPE
84 79 17 21 76 214 347 627 746 902 967 1568 1210 894 1169 1193 753 176 1787 1363 1152 1432 1798 1888 1245 306 1 326 596 1958 1871 1391 637 709 272 286 416 458 441 491 743 830 611
115 62 40 18 12 210 299 541 1046 981 793 1184 1299 1102 951 865 1021 1719 1458 1236 1365 1777 1881 1338 1725 265 0 257 924 107 603 132 1273 810 706 690 349 13 0 0 0 33 9
84 62 67 30 14 120 287 491 946 808 1384 1385 914 1186 1452 844 368 1290 1161 1303 1307 1311 1474 1867 1599 813 985 1586 535 0 753 115 101 1289 999 756 74 0 0 50 19 0 0
142 102 49 47 39 121 347 442 1016 855 1101 1109 1299 976 1058 906 918 1213 1287 1134 1036 1360 1354 1340 1515 1687 1616 403 2053 2008 815 196 179 764 73 103 0 0 0 15 26 1 0
67 69 26 30 55 147 326 775 1064 1030 938 981 1082 969 873 1010 815 448 1042 1463 1149 1296 876 1361 1287 1582 1636 1420 1342 1542 1637 1619 1142 978 0 5 480 6 243 8 48 51 0
48 76 29 87 97 148 105 731 904 887 705 748 628 1026 763 926 138 863 703 1022 1146 778 1177 1147 1577 1573 1430 1439 1049 1403 1764 1660 1742 1114 1456 1568 1016 370 437 627 129 176 164
67 90 31 60 94 260 211 568 883 722 811 878 1164 871 1327 759 749 813 746 1034 850 1242 1086 1070 1318 1378 1250 1525 1643 1433 1797 1295 1756 1594 1455 1538 1330 931 471 496 471 321 437
134 112 64 21 264 304 298 566 856 925 540 833 1221 1181 1082 911 1086 679 879 610 730 413 418 1136 1557 1268 1301 1599 1480 1474 1261 1105 1082 1223 1443 1492 818 312 144 456 37 0 0
256 94 87 98 121 510 550 574 914 977 1192 747 992 889 756 903 847 1225 760 966 885 1053 1017 1396 1453 1332 1552 1201 1361 1377 1062 1122 949 1519 966 968 776 508 802 526 174 342 107
354 230 136 85 336 429 474 626 940 866 948 843 741 601 494 910 833 1064 976 1048 1174 1070 1128 1351 1323 1397 1551 1515 1379 1211 901 942 994 849 987 860 951 777 772 645 43 276 553
337 377 214 99 62 289 673 765 841 900 814 688 1140 865 729 1042 918 752 907 788 808 1009 1025 1199 1482 1423 1381 1136 1078 1301 1168 732 738 852 986 669 997 357 389 607 704 724 989
99 248 167 4 99 243 628 797 778 1015 819 739 940 783 932 761 934 865 1092 879 983 1116 1667 1778 1710 1549 1258 1222 1275 1226 1315 1130 1000 1024 846 606 879 896 640 783 646 817 456
1 125 154 98 91 33 352 769 1007 1036 879 766 597 831 922 667 877 933 918 1083 831 791 1061 1220 918 850 1040 896 1065 1059 1086 1000 661 819 651 629 647 558 470 359 323 554 495
21 234 349 166 75 28 78 924 954 1091 889 752 707 903 676 948 760 920 885 846 888 595 895 1012 883 632 849 822 724 772 887 738 904 950 485 559 631 491 365 299 391 349 254
125 201 221 51 131 156 243 771 975 1129 943 703 815 574 891 818 852 871 917 967 930 885 1013 763 1009 1073 809 345 284 804 774 724 539 639 557 740 516 257 343 427 229 203 111
423 54 4 3 5 14 137 61 496 864 1005 947 785 882 831 734 556 614 792 897 598 1034 679 642 510 654 0 0 0 39 156 273 415 460 439 551 420 109 0 0 0 33 124
140 75 164 22 43 10 120 56 6 352 640 1046 876 891 816 676 849 831 802 679 848 919 638 459 554 248 0 0 0 0 0 22 233 343 350 504 574 129 120 0 0 0 0
0 20 70 204 186 148 129 236 370 408 300 121 301 864 824 724 939 941 948 965 900 875 670 417 300 4 0 0 0 0 0 3 142 86 48 78 77 0 7 103 104 1 0
0 1 0 80 191 137 36 34 198 247 229 156 283 436 545 632 650 762 758 513 331 399 348 220 58 0 0 0 0 0 0 16 21 0 0 0 0 0 0 0 0 0 0
2 0 0 0 32 60 92 57 26 29 91 129 167 76 135 146 268 279 278 254 182 144 0 1 4 3 0 0 0 0 0 0 5 0 0 0 0 0 0 0 0 30 44
1 2 0 4 1 1 130 44 15 9 2 15 0 0 2 5 0 4 7 0 0 1 3 1 0 0 1 2 0 0 0 0 0 17 0 0 0 0 0 0 0 4 0
3 4 1 0 1 0 39 98 8 54 25 28 26 15 3 1 0 0 0 0 0 1 1 0 0 3 0 0 0 0 0 0 0 0 0 0 0 0 0 0 0 0 0
1 2 1 2 1 2 1 16 1 3 3 4 3 0 0 2 0 0 0 0 0 0 0 2 1 1 2 1 0 0 0 0 0 0 0 0 0 0 0 0 0 0 0
0 0 0 0 1 1 1 1 1 0 2 1 0 0 2 1 0 3 1 0 0 0 0 0 0 2 4 0 0 0 0 0 0 0 0 0 0 0 0 0 0 0 0
0 0 0 0 0 0 0 0 0 0 0 0 0 0 0 0 0 0 0 0 0 0 1 2 3 1 0 0 0 0 0 0 0 0 0 0 0 0 0 0 0 0 0
0 0 0 0 0 0 0 0 0 0 0 0 0 0 0 0 0 0 0 0 0 0 0 0 0 0 0 0 0 0 0 0 0 0 0 0 0 0 0 0 0 0 0
CIN
-28 -6 -1 -2 -32 -8 -6 -3 -27 -28 -18 -2 -9 -23 -12 -10 -21 -50 -3 -8 -8 -8 -6 -6 -14 -115 -0 -79 -33 -38 -23 -24 -5 -9 -13 -32 -26 -13 -14 -4 -9 -13 -26
-11 -27 -3 -6 -8 -8 -4 -3 -4 -7 -20 -9 -6 -16 -22 -16 -27 -5 -6 -6 -2 -6 -7 -16 -19 -150 -0 -50 -30 -127 -90 -163 -48 -19 -94 -11 -17 -172 -0 -0 -0 -156 -115
-40 -4 -13 -2 -12 -28 -11 -4 -6 -8 -5 -7 -20 -16 -4 -21 -58 -10 -10 -6 -2 -7 -5 -6 -7 -44 -32 -13 -53 -0 -62 -118 -132 -69 -15 -32 -70 -0 -0 -247 -186 -0 -0
-9 -14 -11 -12 -13 -36 -36 -11 -4 -11 -5 -11 -5 -9 -5 -9 -4 -7 -7 -6 -6 -1 -2 -8 -9 -16 -3 -41 -9 -22 -43 -96 -64 -83 -86 -14 -0 -0 -0 -175 -254 -73 -0
-5 -12 -4 -9 -20 -31 -37 -25 -6 -14 -6 -6 -15 -9 -8 -11 -16 -25 -9 -6 -6 -3 -7 -1 -2 -14 -18 -7 -8 -15 -16 -7 -3 -13 -0 -9 -112 -12 -231 -218 -145 -276 -7
-42 -9 -35 -7 -24 -46 -40 -26 -14 -16 -13 -9 -26 -17 -17 -20 -59 -17 -15 -10 -7 -11 -9 -1 -1 -2 -10 -7 -15 -12 -8 -18 -19 -33 -22 -11 -6 -14 -9 -26 -111 -121 -118
-41 -4 -12 -6 -25 -28 -15 -18 -25 -31 -17 -15 -4 -16 -5 -8 -18 -13 -24 -4 -8 -5 -7 -6 -6 -5 -14 -10 -6 -9 -7 -20 -9 -17 -24 -27 -23 -14 -2 -5 -6 -8 -31
-26 -14 -21 -35 -3 -18 -22 -15 -38 -28 -39 -16 -7 -6 -7 -8 -3 -13 -8 -7 -5 -10 -23 -12 -3 -5 -9 -12 -3 -7 -10 -16 -2 -3 -7 -20 -39 -38 -17 -1 -3 -0 -0
-20 -15 -3 -26 -46 -2 -36 -29 -36 -28 -9 -26 -12 -10 -16 -7 -3 -4 -9 -3 -3 -4 -13 -1 -1 -5 -2 -4 -3 -2 -5 -4 -3 -2 -6 -11 -20 -21 -16 -14 -8 -6 -2
-4 -27 -21 -18 -17 -16 -35 -30 -40 -41 -19 -1 -13 -24 -26 -11 -10 -8 -10 -5 -3 -9 -8 -8 -8 -2 -2 -2 -2 -2 -8 -7 -6 -4 -5 -6 -3 -11 -23 -14 -33 -31 -6
-7 -12 -19 -44 -96 -44 -24 -12 -39 -40 -19 -1 -2 -5 -13 -7 -7 -14 -19 -17 -12 -14 -15 -8 -4 -2 -2 -8 -6 -7 -13 -21 -23 -19 -11 -13 -7 -21 -28 -27 -15 -14 -21
-68 -25 -71 -101 -73 -52 -19 -13 -47 -19 -18 -3 -1 -5 -4 -4 -6 -8 -7 -10 -11 -12 -3 -1 -1 -4 -8 -7 -2 -10 -10 -3 -3 -4 -10 -14 -1 -3 -12 -12 -15 -8 -20
-23 -25 -61 -98 -66 -56 -116 -9 -25 -22 -16 -5 -3 -2 -2 -3 -2 -6 -5 -8 -11 -19 -21 -10 -14 -16 -12 -14 -12 -10 -11 -12 -17 -11 -12 -12 -2 -4 -13 -20 -19 -13 -27
-70 -14 -12 -70 -135 -121 -162 -8 -20 -15 -13 -12 -4 -2 -7 -2 -2 -5 -2 -3 -9 -18 -6 -7 -12 -14 -12 -10 -7 -11 -6 -13 -8 -3 -15 -14 -13 -19 -24 -30 -22 -28 -43
-130 -53 -15 -48 -33 -12 -84 -36 -10 -6 -6 -10 -7 -9 -6 -4 -5 -3 -5 -4 -3 -2 -3 -8 -0 -2 -4 -38 -38 -3 -8 -8 -13 -5 -12 -8 -26 -51 -45 -20 -30 -34 -35
-43 -117 -119 -61 -88 -98 -78 -118 -45 -45 -14 -7 -9 -8 -4 -3 -5 -5 -6 -13 -19 -7 -14 -8 -6 -2 -0 -0 -0 -105 -56 -20 -9 -8 -9 -7 -14 -63 -0 -0 -0 -85 -29
-131 -135 -38 -29 -80 -80 -25 -100 -27 -340 -39 -3 -2 -2 -4 -10 -9 -12 -10 -16 -14 -8 -16 -13 -9 -33 -0 -0 -0 -0 -0 -77 -16 -13 -12 -8 -4 -40 -67 -0 -0 -0 -0
-0 -77 -61 -29 -41 -44 -24 -7 -5 -30 -55 -120 -47 -7 -13 -16 -6 -6 -4 -5 -7 -8 -16 -10 -14 -21 -0 -0 -0 -0 -0 -42 -2 -50 -53 -50 -59 -0 -42 -40 -30 -39 -0
-0 -6 -2 -73 -39 -33 -24 -28 -11 -28 -20 -27 -14 -6 -11 -0 -0 -0 -0 -7 -9 -8 -13 -20 -38 -0 -0 -0 -0 -0 -0 -16 -23 -0 -0 -0 -0 -0 -0 -0 -0 -0 -0
-204 -0 -0 -0 -82 -25 -0 -0 -11 -20 -17 -16 -12 -18 -19 -0 -4 -0 -0 -1 -12 -1 -0 -0 -0 -0 -0 -0 -0 -0 -0 -0 -6 -0 -0 -0 -0 -0 -0 -0 -0 -23 -11
-0 -0 -0 -170 -0 -0 -13 -9 -24 -0 -2 -16 -9 -0 -1 -7 -0 -70 -160 -0 -0 -0 -0 -0 -0 -0 -0 -0 -0 -0 -0 -0 -0 -10 -0 -0 -0 -0 -0 -0 -0 -109 -0
-0 -0 -0 -0 -0 -0 -80 -18 -61 -5 -18 -17 -10 -12 -43 -21 -20 -0 -0 -0 -0 -0 -0 -0 -0 -0 -0 -0 -0 -0 -0 -0 -0 -0 -0 -0 -0 -0 -0 -0 -0 -0 -0
-0 -0 -0 -0 -0 -0 -0 -162 -11 -9 -6 -92 -109 -0 -0 -0 -0 -54 -0 -0 -0 -0 -0 -0 -0 -0 -0 -0 -0 -0 -0 -0 -0 -0 -0 -0 -0 -0 -0 -0 -0 -0 -0
-0 -0 -0 -0 -0 -0 -0 -0 -0 -0 -0 -0 -0 -0 -14 -0 -44 -137 -0 -0 -0 -0 -0 -0 -0 -0 -0 -0 -0 -0 -0 -0 -0 -0 -0 -0 -0 -0 -0 -0 -0 -0 -0
-0 -0 -0 -0 -0 -0 -0 -0 -0 -0 -0 -0 -0 -0 -0 -0 -0 -0 -0 -0 -0 -0 -0 -0 -0 -0 -0 -0 -0 -0 -0 -0 -0 -0 -0 -0 -0 -0 -0 -0 -0 -0 -0
-0 -0 -0 -0 -0 -0 -0 -0 -0 -0 -0 -0 -0 -0 -0 -0 -0 -0 -0 -0 -0 -0 -0 -0 -0 -0 -0 -0 -0 -0 -0 -0 -0 -0 -0 -0 -0 -0 -0 -0 -0 -0 -0
Wind_Speed
17 17 19 17 17 14 18 27 19 19 23 24 24 18 20 25 6 19 22 22 20 23 18 17 18 14 15 12 26 14 12 17 16 20 17 16 12 12 19 19 18 7 10
17 16 17 17 16 15 17 21 19 19 22 26 18 25 14 16 13 25 16 24 22 20 18 18 12 10 25 17 9 15 11 21 21 8 15 16 12 17 21 22 20 22 26
19 19 16 17 15 14 14 16 17 21 26 26 8 19 6 7 25 22 16 23 21 20 18 21 14 21 23 19 8 8 17 4 19 19 11 15 11 20 28 21 22 28 28
21 19 15 16 16 16 15 16 11 21 29 28 26 16 26 25 23 21 21 22 23 23 22 22 21 26 14 7 20 8 9 12 16 19 15 17 12 11 8 12 19 31 24
19 17 18 17 16 16 16 14 11 15 26 30 27 24 27 20 14 21 15 20 22 21 23 22 22 24 23 20 19 19 19 15 14 11 15 20 10 9 15 20 8 7 14
41 15 17 16 13 14 15 13 12 10 15 29 31 30 30 20 25 21 20 22 19 23 25 22 19 21 23 22 21 22 23 23 22 21 17 8 12 7 13 6 8 5 12
29 11 11 13 14 15 14 12 12 10 11 7 30 32 30 25 5 2 20 25 24 12 20 23 16 21 23 24 23 22 24 24 23 18 23 24 19 15 14 10 9 12 12
19 13 12 13 11 13 10 9 11 9 8 14 32 30 30 28 27 18 27 24 21 19 15 12 21 23 22 25 24 19 20 15 3 7 11 20 26 24 25 6 21 17 19
15 17 13 16 12 12 10 8 10 9 8 9 8 15 21 31 18 17 21 22 22 21 3 8 13 26 13 20 25 21 25 26 18 16 6 5 4 1 28 26 23 25 24
12 23 29 23 17 16 12 10 11 9 7 10 10 7 11 25 27 21 18 22 20 22 23 20 26 27 19 14 14 13 12 2 18 19 19 23 24 25 27 27 26 25 11
18 18 20 23 31 19 14 13 11 9 8 10 11 9 7 6 13 19 21 22 23 22 23 23 24 23 20 19 16 15 20 21 17 20 25 22 20 24 28 27 27 26 25
24 24 25 40 34 40 19 16 12 11 10 9 11 9 8 8 8 10 13 12 15 18 23 25 25 24 24 22 18 14 14 16 13 18 23 24 17 18 15 18 26 25 23
21 34 17 22 44 41 30 17 14 14 12 12 14 12 11 10 11 9 16 9 16 19 18 19 22 24 25 22 16 17 22 24 23 21 20 16 14 19 22 24 24 23 23
25 24 26 29 35 42 41 20 17 16 14 12 13 16 14 12 15 17 16 18 15 18 18 16 15 16 18 22 20 18 19 25 25 25 26 26 21 21 20 20 20 22 23
19 22 21 23 26 35 43 25 20 19 17 14 13 13 12 12 14 16 18 19 19 15 16 18 17 16 19 22 24 20 20 23 27 26 24 25 25 25 24 23 22 20 21
23 23 23 23 27 25 21 23 24 20 18 16 14 14 13 15 16 15 14 15 19 19 19 23 23 21 19 20 22 23 26 27 27 28 28 26 25 24 23 21 21 21 21
23 28 25 24 24 28 35 31 43 16 14 21 16 17 18 16 16 18 19 19 20 20 22 21 20 19 20 22 24 26 26 27 28 28 28 28 25 23 19 19 19 20 20
22 28 16 19 18 22 28 26 24 30 22 26 18 24 18 19 18 20 22 22 22 23 23 23 21 19 23 25 26 28 29 28 23 26 26 25 24 23 23 23 21 21 22
17 16 20 18 17 17 20 24 23 26 22 22 22 26 21 18 18 20 22 22 23 23 23 24 24 23 26 26 27 26 26 26 23 23 24 24 23 24 25 25 24 23 22
19 19 19 20 19 19 15 15 19 21 21 19 16 15 15 15 17 20 23 22 25 24 23 23 24 23 24 24 22 20 19 21 23 22 20 20 20 23 24 23 23 26 20
18 19 16 18 20 19 16 11 11 14 16 18 17 17 16 18 17 16 18 17 18 21 20 18 19 19 20 17 17 16 17 19 19 18 15 18 21 22 21 21 20 20 21
17 17 17 15 18 17 15 12 13 13 9 9 10 12 12 12 10 11 14 14 15 15 15 13 12 14 15 16 15 15 16 18 17 17 17 19 21 22 23 22 22 24 26
16 17 16 17 17 16 15 14 15 7 7 7 7 9 7 8 9 9 9 12 13 11 13 12 12 13 13 12 14 16 17 18 19 19 22 23 23 22 22 22 24 25 24
16 17 18 18 17 16 12 11 11 9 9 8 8 7 9 8 8 10 12 12 12 13 13 13 13 15 14 14 15 16 18 20 21 22 23 24 25 23 21 19 19 17 21
13 14 14 17 17 18 18 17 17 14 12 13 15 13 13 14 13 15 15 15 15 15 13 13 13 14 15 16 17 18 20 23 24 25 25 26 25 26 21 16 16 17 19
12 11 12 12 13 14 15 17 20 21 19 17 17 17 16 16 15 15 15 16 16 16 16 16 15 14 15 16 17 18 19 19 22 22 26 27 26 25 24 20 19 18 17
Wind_Direction
131 127 127 121 120 113 123 160 118 117 133 144 152 228 222 175 255 231 217 213 225 217 237 238 238 280 276 253 209 258 272 255 249 177 96 92 310 3 230 241 217 126 172
140 129 127 128 128 122 128 137 127 124 132 155 113 175 242 237 251 184 239 214 220 229 231 237 274 337 194 209 303 256 293 238 221 83 273 132 73 307 304 282 275 271 289
146 154 136 136 132 129 132 135 132 142 155 176 99 224 288 272 207 219 240 218 229 234 240 235 264 233 227 252 35 83 127 202 252 268 54 73 355 303 273 244 257 305 286
160 152 146 144 139 137 134 140 132 146 172 184 184 121 192 173 207 227 223 224 222 225 236 238 250 233 296 80 235 22 15 358 310 250 278 341 64 57 117 206 231 341 321
170 162 158 148 146 141 141 138 141 143 160 186 215 157 186 230 249 227 246 234 230 250 239 248 253 249 258 282 282 272 274 325 11 95 25 254 172 76 33 298 195 145 41
222 171 167 156 146 147 144 143 148 149 237 193 202 196 191 237 223 236 246 238 258 237 235 253 264 263 264 269 279 280 268 281 297 306 312 21 23 68 26 85 162 133 51
185 202 202 176 160 153 150 149 152 156 157 244 179 201 214 217 109 23 218 226 234 275 262 248 285 271 266 260 268 282 279 276 293 331 293 276 249 289 14 27 224 302 70
194 221 202 208 192 169 161 161 158 163 175 164 198 229 224 226 226 265 230 249 256 270 292 294 276 274 279 263 278 306 305 195 141 21 358 322 259 262 280 41 349 258 260
221 220 223 197 210 208 182 184 169 165 168 178 228 252 253 231 262 272 262 258 259 268 63 322 308 260 314 289 277 300 284 275 321 334 32 27 46 86 296 303 332 321 298
228 241 247 251 203 210 200 200 180 181 177 175 177 208 255 252 249 264 269 265 275 272 277 290 269 259 295 312 315 320 329 182 320 319 324 317 311 308 291 303 315 285 314
261 243 230 238 245 219 218 206 193 195 193 181 176 178 196 207 267 268 267 269 274 281 280 284 286 290 300 300 308 313 306 313 319 315 303 316 324 316 291 300 304 308 317
262 258 252 243 247 241 210 201 209 209 215 222 241 222 224 244 253 269 277 286 293 292 286 283 287 291 291 298 308 319 323 322 327 321 316 312 330 331 338 335 315 318 323
271 259 255 224 239 238 239 210 215 214 218 233 242 242 246 250 258 250 275 284 289 290 297 298 295 291 292 299 315 316 311 307 308 316 320 326 329 321 315 315 317 320 325
282 282 261 250 243 245 236 219 221 221 217 228 235 247 250 253 261 268 277 281 291 291 295 300 307 310 309 303 313 318 317 305 307 310 309 308 319 322 324 324 328 325 323
302 298 262 251 247 239 236 247 230 225 224 225 232 242 245 254 264 270 276 281 287 294 298 298 301 307 307 307 307 313 317 313 307 310 314 313 313 315 316 318 319 322 321
295 290 271 251 252 250 255 259 257 240 224 224 234 243 251 259 265 272 277 282 283 289 291 293 295 300 308 310 312 309 308 308 309 307 307 311 314 318 318 319 320 319 318
292 292 270 255 261 259 250 269 243 259 249 256 241 257 261 262 268 271 277 282 286 291 292 295 299 303 304 305 306 306 311 311 310 307 305 307 310 316 321 324 325 325 324
290 306 295 273 281 271 261 264 265 259 261 255 276 265 267 270 274 277 279 284 288 289 294 295 298 301 302 301 305 307 305 306 313 310 305 308 310 313 311 314 316 318 318
311 339 303 291 297 298 281 269 265 260 262 263 262 264 274 277 282 284 287 289 291 292 295 295 296 298 298 304 308 310 309 303 312 315 310 308 310 309 309 309 309 311 315
313 326 324 282 303 309 305 295 266 263 258 258 265 278 289 286 285 297 295 296 294 294 297 298 299 309 303 305 309 319 319 316 315 312 320 323 317 311 311 307 309 309 315
328 314 5 300 293 300 291 305 296 275 272 262 269 280 281 284 310 308 318 312 312 311 304 303 309 316 319 313 319 322 326 326 328 332 332 329 327 323 319 317 312 313 315
343 336 355 323 305 306 292 287 290 298 302 293 278 290 302 311 298 321 332 338 334 331 333 326 329 331 328 324 322 330 336 331 335 332 333 328 324 320 314 310 311 308 306
10 4 355 349 319 309 304 274 268 317 293 330 321 310 339 357 357 356 354 350 352 340 344 349 347 345 351 347 339 343 337 339 339 328 316 312 314 320 320 317 313 309 310
17 13 16 10 3 3 357 1 350 339 344 339 316 329 1 358 352 353 12 7 352 342 341 329 338 344 2 358 332 342 330 329 319 315 309 307 312 321 332 338 333 340 327
21 10 19 30 31 29 35 39 41 43 37 44 46 31 32 39 36 43 42 43 24 22 23 20 20 17 9 348 341 342 331 322 321 313 315 311 317 317 331 345 347 344 338
27 23 19 20 24 23 36 50 60 64 59 52 53 54 52 48 44 43 38 23 23 18 22 17 8 357 1 359 360 359 357 355 348 341 325 321 326 328 332 326 330 332 333